Weather History for New River MCAS, NC

Change the Weather History Date:

Friday, March 1, 2013

  Actual Average Record
Temperature  
Mean Temperature 42 °F -  
Max Temperature 53 °F 60 °F 81 °F (1997)
Min Temperature 32 °F 39 °F 22 °F (2002)
Degree Days  
Heating Degree Days 22    
Moisture  
Dew Point 28 °F    
Average Humidity 57    
Maximum Humidity 82    
Minimum Humidity 34    
Precipitation  
Precipitation 0.00 in - - ()
Sea Level Pressure  
Sea Level Pressure 29.88 in    
Wind  
Wind Speed 7 mph (WNW)    
Max Wind Speed 14 mph    
Max Gust Speed 18 mph    
Visibility 10 miles    
Events      
Averages and records for this station are not official NWS values.
T = Trace of Precipitation, MM = Missing Value Source: NWS Daily Summary

Daily Weather History Graph

Daily Weather History Graph

Search for Another Location

Airport:

Trip Planner

Search our weather history database for the weather conditions in past years. The results will help you decide how hot, cold, wet, or windy it might be!

Date:

Astronomy

Mar. 01, 2013 Rise Set
Actual Time 6:38 AM EST 6:05 PM EST
Civil Twilight 6:13 AM EST 6:31 PM EST
Nautical Twilight 5:44 AM EST 7:00 PM EST
Astronomical Twilight 5:14 AM EST 7:29 PM EST
Moon 10:23 PM EST (3/1) 8:36 AM EST (3/1)
Length of Visible Light 12h 17m
Length of Day
11h 27m
Waning Gibbous, 83% of the Moon is Illuminated
Mar 1
Waning Gibbous
Mar 4
Last Quarter
Mar 11
New
Mar 19
First Quarter
Mar 27
Full

Hourly Weather History & Observations

Time (EST) Temp. Windchill Dew Point Humidity Pressure Visibility Wind Dir Wind Speed Gust Speed Precip Events Conditions
12:56 AM 37.0 °F 31.6 °F 28.9 °F 73% 29.87 in 10.0 mi WSW 6.9 mph - N/A   Clear
1:56 AM 37.0 °F 32.4 °F 28.0 °F 70% 29.87 in 10.0 mi West 5.8 mph - N/A   Clear
2:56 AM 35.1 °F 30.1 °F 28.0 °F 76% 29.87 in 10.0 mi West 5.8 mph - N/A   Clear
3:56 AM 35.1 °F 32.2 °F 28.0 °F 76% 29.86 in 10.0 mi West 3.5 mph - N/A   Clear
4:56 AM 34.0 °F 29.8 °F 27.0 °F 75% 29.88 in 10.0 mi WSW 4.6 mph - N/A   Clear
5:56 AM 32.0 °F 26.4 °F 27.0 °F 82% 29.89 in 10.0 mi WSW 5.8 mph - N/A   Clear
6:56 AM 32.0 °F 26.4 °F 27.0 °F 82% 29.89 in 10.0 mi West 5.8 mph - N/A   Clear
7:56 AM 36.0 °F 29.6 °F 28.9 °F 76% 29.91 in 10.0 mi WNW 8.1 mph - N/A   Clear
8:56 AM 42.1 °F 37.1 °F 28.9 °F 60% 29.90 in 10.0 mi NNW 8.1 mph - N/A   Clear
9:56 AM 46.0 °F 40.6 °F 27.0 °F 47% 29.89 in 10.0 mi NNW 11.5 mph - N/A   Partly Cloudy
10:56 AM 48.9 °F - 27.0 °F 43% 29.89 in 10.0 mi NW 8.1 mph - N/A   Clear
11:56 AM 50.0 °F - 26.1 °F 39% 29.88 in 10.0 mi West 10.4 mph - N/A   Clear
12:56 PM 53.1 °F - 27.0 °F 37% 29.86 in 10.0 mi West 11.5 mph - N/A   Partly Cloudy
1:56 PM 53.1 °F - 25.0 °F 34% 29.84 in 10.0 mi WNW 11.5 mph 18.4 mph N/A   Partly Cloudy
2:56 PM 53.1 °F - 26.1 °F 35% 29.83 in 10.0 mi WNW 12.7 mph - N/A   Mostly Cloudy
3:56 PM 53.1 °F - 26.1 °F 35% 29.83 in 10.0 mi NW 13.8 mph - N/A   Mostly Cloudy
4:56 PM 51.1 °F - 27.0 °F 39% 29.84 in 10.0 mi WNW 10.4 mph - N/A   Overcast
5:56 PM 50.0 °F - 27.0 °F 41% 29.86 in 10.0 mi NW 5.8 mph - N/A   Overcast
6:56 PM 48.9 °F - 28.0 °F 44% 29.89 in 10.0 mi WNW 8.1 mph - N/A   Overcast
7:56 PM 46.9 °F - 28.0 °F 48% 29.91 in 10.0 mi NW 9.2 mph - N/A   Overcast
8:56 PM 45.0 °F 41.8 °F 28.0 °F 52% 29.92 in 10.0 mi NW 5.8 mph - N/A   Overcast
9:56 PM 43.0 °F 41.3 °F 28.9 °F 58% 29.92 in 10.0 mi West 3.5 mph - N/A   Overcast
10:56 PM 42.1 °F 40.2 °F 30.0 °F 62% 29.92 in 10.0 mi West 3.5 mph - N/A   Overcast
11:56 PM 39.0 °F - 30.9 °F 73% 29.92 in 10.0 mi Calm Calm - N/A   Scattered Clouds